AirNav   Jet Aviation Boston
 
 890 users online  

UT56 American Fork Hospital Heliport
American Fork, Utah, USA

GOING TO AMERICAN FORK?


FAA INFORMATION EFFECTIVE 24 MAY 2018

Location

FAA Identifier: UT56
Lat/Long: 40-22-46.8700N / 111-46-06.9900W
40-22.781167N / 111-46.116500W
40.3796861 / -111.7686083
(estimated)
Elevation: 4603 ft. / 1403 m (estimated)
Variation: 14E (1986)
Time zone: UTC -6 (UTC -7 during Standard Time)
Zip code: 84003

Heliport Operations

Heliport use: Private use, MEDICAL USE.
Activation date: 04/1986
Control tower: no
ARTCC: SALT LAKE CITY CENTER
FSS: CEDAR CITY FLIGHT SERVICE STATION
Attendance: UNATNDD
Wind indicator: yes
Segmented circle: no

Heliport Communications

WX AWOS-3PT at PVU (10 nm S): 135.175 (801-373-9782)
WX AWOS-3PT at HCR (17 nm E): 124.825 (435-657-0892)
WX AWOS-3 at U42 (18 nm NW): 134.425 (801-562-0271)

Nearby radio navigation aids

VOR radial/distance  VOR name  Freq  Var
FFUr035/10.1FAIRFIELD VORTAC116.6016E
PVUr333/10.1PROVO VOR/DME108.4015E
TCHr145/29.9WASATCH VORTAC116.8016E

Heliport Services

Runway Information

Helipad H1

Dimensions: 85 x 65 ft. / 26 x 20 m
Surface: asphalt
Latitude: 40-22.781167N
Longitude: 111-46.116500W
Elevation: 4603.0 ft.
Traffic pattern: leftleft

Heliport Ownership and Management from official FAA records

Ownership: Privately-owned
Owner: AMERICAN FORK HOSPITAL
170 NORTH 1100 EAST
AMERICAN FORK, UT 84003
Phone 801-855-3300
Manager: JASON WILSON
170 NORTH 1100 EAST
AMERICAN FORK, UT 84003
Phone 801-855-3300

Additional Remarks

A52-H1 75' PLINE 300' S; 60' BLDG-L 200' EAST.

Instrument Procedures

There are no published instrument procedures at UT56.

Some nearby airports with instrument procedures:

KPVU - Provo Municipal Airport (10 nm S)
KHCR - Heber City Municipal Airport - Russ McDonald Field (17 nm E)
U42 - South Valley Regional Airport (18 nm NW)
KSLC - Salt Lake City International Airport (26 nm N)
KTVY - Bolinder Field-Tooele Valley Airport (30 nm NW)
 
Loc | Ops | Rwys | IFR | FBO | Links
Com | Nav | Svcs | Stats | Notes

TAC Air
 
Area around UT56 (American Fork Hospital Heliport)
 
Road maps at: MapQuest Bing Google
 
Aerial photo
No photo
 
Sectional chart

 
Airport distance calculator
Flying to American Fork Hospital Heliport? Find the distance to fly.

From to UT56

Sunrise and sunset
Times for 17-Jun-2018
 Local
(UTC-6)
 Zulu
(UTC)
Morning civil twilight05:2411:24
Sunrise05:5711:57
Sunset20:5802:58
Evening civil twilight21:3203:32

Current date and time
Zulu (UTC)  18-Jun-2018 00:33:54
Local (UTC-6)  17-Jun-2018 18:33:54
 
METAR
KPVU 
10nm S 
172356Z 24009KT 10SM BKN110 28/09 A2967 RMK AO2 LTG DSNT NE SLP986 T02780094 10317 20244 56010
KHCR 
17nm E 
180015Z AUTO 14010G15KT 10SM -RA SCT002 SCT007 SCT014 20/10 A2975 RMK AO2
KU42 
18nm NW 
180015Z AUTO 18019G27KT 10SM CLR 30/06 A2966 RMK AO1 T02970064
TAF
KPVU 
10nm S 
171744Z 1718/1818 14006KT P6SM FEW080 BKN120 FM172100 16011KT P6SM VCSH SCT080 BKN120 FM180100 15006KT P6SM SCT120
KHCR 
17nm E 
172238Z 1723/1818 12011KT P6SM VCSH SCT060 BKN120 FM180200 21008KT P6SM SCT120
NOTAMs
Click for the latest NOTAMs
NOTAMs are issued by the DoD/FAA and will open in a separate window not controlled by AirNav.

 

 
 

Would you like to see your business listed on this page?

 If your business provides an interesting product or service to pilots, flight crews, aircraft, or users of the American Fork Hospital Heliport, you should consider listing it here.  To start the listing process, click on the button below
 
Add a business
 

Other Pages about American Fork Hospital Heliport

Update a link
 
Copyright © AirNav, LLC. All rights reserved. Privacy Policy  Contact